Location: Recife
(8.0585°S, 34.8848°W)
Time: 09:59:42
(UTC-03:00)

Courier 1B Rocket - Pass Details

Date: 19 April 2026
Orbit: 920 x 1201 km, 28.2° (Epoch: 13 May)

Event Time Altitude Azimuth Distance (km) Brightness Sun altitude
Rises 23:39:38 0° 337° (NNW) 3,642 - -83.8°
Reaches altitude 10° 23:44:25 10° 8° (N) 2,645 - -82.8°
Maximum altitude 23:46:35 12° 28° (NNE) 2,501 - -82.3°
Drops below altitude 10° 23:48:43 10° 48° (NE) 2,615 - -81.8°
Sets 23:53:21 0° 79° (E) 3,545 - -80.8°
